Temperature
21 22 21 21 20 20 19 18 17 17 16 15 15 15 16 16 16 15 15 14 14 14 14 13 13 13 13 12 12 12 12 11 11 11 11 10 10 10 10 10 10 9 9 9
20 21 20 19 20 20 19 18 18 16 15 15 15 15 15 15 15 14 14 14 14 13 13 13 13 12 12 12 12 11 11 11 11 11 10 10 10 10 10 10 9 9 9 9
19 20 20 17 18 18 18 16 16 15 14 14 14 14 15 15 15 14 14 14 13 13 13 12 12 12 12 12 11 11 11 11 10 10 10 10 10 10 9 9 9 9 9 9
18 18 19 18 19 19 17 15 15 15 15 14 14 15 15 15 14 14 14 13 13 13 12 12 12 11 11 11 11 11 10 10 10 10 10 10 9 9 9 9 9 9 9 9
17 18 18 18 18 18 17 15 15 15 14 14 14 14 13 14 14 13 13 13 12 12 12 11 11 11 10 10 10 10 10 9 9 9 9 9 9 9 9 9 9 9 8 8
17 19 18 17 18 19 17 15 14 14 13 14 13 10 11 14 13 13 12 12 11 11 11 10 10 10 9 9 9 9 9 8 8 8 8 8 8 8 8 8 8 8 8 8
17 17 17 17 18 17 15 14 14 15 14 14 12 12 13 13 13 12 11 11 10 10 9 9 9 8 8 8 8 7 7 7 7 7 7 7 7 7 8 8 8 8 8 8
16 16 16 17 17 15 14 15 15 15 14 14 13 13 13 12 12 11 10 10 9 9 8 8 7 7 7 7 6 6 6 6 6 6 6 6 6 6 7 7 7 7 7 8
15 15 16 17 16 16 15 15 14 14 14 13 13 12 12 11 10 10 9 9 8 7 7 7 6 6 6 6 5 5 5 5 5 5 6 6 6 6 6 6 6 6 7 7
15 15 16 16 16 15 15 14 14 14 13 13 12 12 11 10 9 9 8 8 7 7 6 6 6 5 5 5 5 5 5 5 5 5 5 5 5 5 5 6 6 6 6 7
15 15 16 16 15 15 15 14 14 13 13 12 11 11 10 9 8 8 7 7 6 6 6 5 5 5 5 5 4 4 4 4 4 5 5 5 5 5 5 5 6 6 6 6
14 15 14 15 15 15 14 14 13 13 12 11 11 10 9 8 8 7 7 6 6 5 5 5 5 5 5 4 4 4 4 4 4 4 4 4 5 5 5 5 5 5 6 6
17 16 16 15 15 14 14 13 13 12 11 10 10 9 8 8 7 7 6 6 5 5 5 5 5 5 5 4 4 4 4 4 4 4 4 4 4 5 5 5 5 5 6 6
17 16 15 15 14 14 13 13 12 11 10 10 9 8 8 7 7 6 6 5 5 5 5 5 5 5 4 4 4 4 4 4 4 4 4 4 4 4 5 5 5 5 6 6
16 16 15 14 14 13 13 12 11 10 10 9 8 8 7 7 6 6 5 5 5 5 5 5 5 5 5 5 5 4 5 5 5 5 4 4 4 5 5 5 5 5 5 6
16 15 15 14 13 13 12 11 10 10 9 9 8 7 7 6 6 6 5 5 5 4 5 5 5 5 5 5 5 5 5 5 5 5 5 5 5 5 5 5 5 5 5 6
16 15 14 13 13 12 11 10 10 9 9 8 8 7 6 6 5 5 5 5 5 5 5 5 5 5 5 5 5 5 5 5 5 5 5 5 5 5 5 5 5 5 5 6
15 15 14 13 12 12 11 10 10 9 8 8 7 7 6 5 5 5 5 5 5 5 5 5 5 5 5 5 5 5 5 5 5 5 5 5 5 5 5 5 5 5 6 6
15 14 13 13 12 11 10 10 9 9 8 8 7 6 6 5 5 5 5 5 5 5 5 5 6 6 6 6 6 6 6 6 6 6 5 5 5 5 5 5 5 6 6 6
14 14 13 12 12 11 10 10 9 9 8 7 7 6 6 5 5 5 5 5 5 5 5 5 6 6 6 6 6 6 6 6 6 6 6 6 6 6 6 6 6 6 6 6
14 13 13 12 11 10 10 9 9 8 8 7 7 6 5 5 5 5 5 5 5 5 6 6 6 6 6 6 7 7 6 6 6 6 6 6 6 6 6 6 6 6 6 6
14 13 12 12 11 10 10 9 9 8 8 7 7 6 5 5 5 5 5 5 5 5 6 6 6 7 7 7 7 7 7 7 6 6 6 6 6 6 6 6 6 7 7 7
13 13 12 11 11 10 10 9 9 8 8 7 6 6 5 5 5 4 5 5 6 6 6 6 6 7 7 7 7 7 7 7 7 7 7 7 7 7 7 7 7 7 7 7
13 13 12 11 11 10 10 9 8 8 7 7 6 6 5 5 5 5 5 6 6 6 7 7 7 7 8 8 8 8 7 7 7 7 7 7 7 7 7 7 7 7 8 8
13 13 12 11 11 10 9 9 8 8 7 7 7 6 5 5 5 5 5 6 6 7 7 7 7 8 8 8 8 8 8 8 8 8 8 8 8 7 7 8 8 8 8 8
13 13 12 11 11 10 9 9 8 8 7 7 6 6 6 5 5 5 6 6 6 7 7 7 8 8 8 8 8 8 8 8 8 8 8 8 8 8 8 8 8 8 8 9
13 12 12 11 10 10 9 9 8 7 7 6 6 5 5 5 6 6 6 6 6 6 7 7 7 8 8 8 8 8 9 9 9 8 8 9 9 9 9 9 9 9 9 9
Wind_Speed
3 2 8 10 9 10 8 5 3 0 3 1 1 2 4 5 7 7 6 5 6 6 7 8 9 9 9 10 10 10 10 10 12 12 11 11 11 11 11 10 11 10 9 9
5 5 11 11 9 7 6 5 3 5 3 2 2 4 6 8 8 7 7 8 9 9 9 9 9 10 10 10 11 10 10 11 11 11 11 11 11 11 10 10 10 9 9 9
5 5 4 6 6 6 5 5 4 3 1 4 6 7 8 8 8 9 10 10 10 10 10 10 10 11 11 11 10 10 10 11 11 11 11 11 11 10 10 10 10 9 9 9
2 7 4 3 1 5 6 5 5 2 3 5 7 8 8 8 8 10 11 11 11 10 11 10 10 10 10 10 9 10 10 10 10 10 10 10 10 10 10 8 8 8 9 9
3 2 2 0 3 3 1 2 2 3 6 8 8 7 7 9 9 11 12 12 11 11 12 11 11 11 10 10 10 10 10 10 10 9 10 9 10 10 9 7 8 8 7 9
3 1 4 3 4 4 1 3 2 4 6 8 8 9 8 9 11 11 12 11 11 11 11 11 11 10 10 11 11 11 11 10 10 9 9 10 10 10 8 8 9 8 8 9
3 1 3 4 4 4 2 6 6 5 7 7 6 8 10 12 11 11 11 11 11 11 10 10 11 10 11 11 11 11 10 10 9 9 9 10 9 8 8 8 8 8 8 8
2 2 5 3 3 2 5 5 5 6 6 8 10 11 11 11 11 11 11 11 11 10 10 11 11 11 12 13 13 12 11 11 11 10 11 11 8 8 7 7 7 8 7 7
6 5 4 2 5 4 5 4 5 6 8 8 9 10 10 10 10 10 11 11 11 12 13 13 12 12 14 14 13 13 13 12 12 12 10 10 9 9 8 7 7 7 6 6
3 2 4 4 3 1 2 3 5 6 8 8 9 10 10 9 10 11 10 12 11 13 15 15 14 14 14 15 14 13 13 13 11 11 11 10 8 8 7 7 7 7 7 6
2 1 0 2 3 3 3 5 6 8 7 8 8 9 9 9 11 11 11 11 12 14 16 17 16 16 16 15 14 14 14 12 11 10 10 9 8 8 8 8 8 8 7 6
5 6 4 5 5 3 4 6 7 8 8 8 7 9 9 10 10 11 14 14 15 16 16 17 18 18 16 15 14 14 12 11 9 8 8 7 7 8 10 11 12 13 12 9
7 6 5 3 2 3 4 6 7 7 8 8 8 8 9 10 11 13 15 16 17 17 18 19 19 18 16 14 14 13 12 10 8 8 7 7 6 6 6 6 8 9 11 11
6 5 2 1 2 3 4 6 7 7 7 7 7 9 10 11 13 15 16 17 17 18 19 18 18 17 16 14 14 13 11 11 10 7 7 6 6 6 5 5 4 3 4 8
6 6 4 1 2 4 5 5 7 8 8 8 8 10 12 13 15 16 16 17 17 18 18 18 18 17 15 14 13 12 10 7 7 6 6 5 5 5 5 5 4 4 2 2
6 4 4 3 4 5 5 6 6 8 8 8 9 11 12 13 15 16 17 18 18 19 19 18 17 17 16 14 13 10 8 11 9 5 4 4 4 4 4 4 4 4 5 5
5 2 1 1 3 4 4 5 5 7 8 9 10 12 12 14 15 16 17 18 17 17 16 16 17 17 16 13 11 8 7 8 10 5 2 3 3 4 4 4 4 4 5 7
7 6 6 4 1 2 4 5 6 7 7 8 10 11 12 14 16 17 18 19 18 17 15 16 18 19 16 13 10 7 6 5 4 3 1 1 2 3 3 3 4 4 4 6
8 8 6 5 3 2 3 5 6 6 7 8 10 11 12 13 14 16 17 18 17 18 19 20 23 18 15 15 14 7 6 5 4 2 0 1 1 2 3 3 3 4 5 7
8 7 6 4 3 2 3 5 5 6 7 7 9 10 12 13 14 16 17 15 13 14 19 20 18 15 15 14 15 7 5 4 3 2 1 1 1 2 2 3 4 5 6 7
8 7 5 3 1 3 4 4 4 5 7 7 9 10 12 13 14 14 15 14 15 18 20 18 14 13 13 14 13 7 4 3 3 2 1 1 2 2 3 3 4 5 6 6
7 5 4 1 1 3 3 3 3 5 6 7 9 10 11 13 14 14 13 12 15 20 17 12 13 17 19 15 8 7 5 4 3 2 2 2 2 3 4 4 4 5 5 5
6 5 4 2 2 2 3 3 4 4 5 7 9 10 10 10 10 12 14 13 14 20 16 12 19 24 22 11 8 7 7 6 5 3 2 2 3 4 4 4 4 4 5 5
7 6 4 3 1 1 2 3 4 3 4 6 7 8 8 9 10 10 10 15 18 19 13 14 20 22 18 10 9 8 7 6 5 4 4 3 3 4 4 4 4 4 5 6
7 6 4 3 2 1 1 1 3 3 5 5 7 8 7 7 8 11 12 14 18 17 14 15 18 19 14 11 10 9 8 7 6 4 4 4 4 4 3 4 4 4 4 4
7 5 5 5 4 3 2 1 1 2 3 5 6 6 7 8 9 10 10 13 16 16 14 12 13 14 12 12 11 10 9 8 7 6 5 3 3 3 3 4 5 4 4 4
6 5 4 4 3 3 2 2 1 1 2 3 5 6 7 9 9 10 12 12 13 13 12 12 12 12 12 12 12 11 10 9 9 7 6 5 3 3 3 4 3 3 4 4
Wind_Direction
288 51 75 68 60 62 74 93 111 72 120 55 29 356 339 327 322 325 327 323 309 288 272 266 266 264 258 256 255 251 246 242 243 244 243 244 245 248 249 248 251 250 252 253
355 88 91 70 47 48 60 55 77 99 83 355 346 351 335 324 319 310 298 294 292 287 279 273 267 263 260 257 254 248 244 244 244 242 241 240 242 243 243 244 246 245 244 247
327 321 84 38 17 40 45 32 75 100 284 314 329 326 311 304 298 289 289 291 289 283 272 269 266 264 263 260 257 252 249 248 246 243 242 241 242 240 236 237 236 236 240 241
350 23 34 229 25 67 92 81 75 92 303 301 293 287 284 290 289 294 295 294 289 282 277 273 270 272 271 269 265 261 259 257 254 250 247 245 241 239 237 233 230 230 233 238
84 40 168 257 13 14 316 195 35 339 315 310 304 313 300 285 285 285 287 285 283 282 282 283 283 282 283 280 275 271 267 263 260 255 254 252 247 242 238 231 230 228 227 231
75 49 247 251 308 307 341 231 291 343 321 310 326 325 297 288 287 286 288 290 291 292 293 294 292 292 290 287 285 280 276 273 267 260 255 252 249 244 240 233 234 234 235 231
76 326 257 272 311 34 56 273 291 298 298 300 294 271 279 292 296 295 297 298 299 300 299 295 295 296 291 289 283 280 279 277 274 268 264 258 250 244 240 238 237 235 237 239
90 19 274 298 55 92 236 257 280 290 292 291 284 284 292 301 304 306 307 306 305 302 297 295 296 296 292 288 285 283 280 277 273 268 269 274 255 247 240 234 234 237 238 247
175 206 225 116 140 193 212 262 284 290 296 296 299 300 306 307 309 309 308 307 305 304 305 303 299 295 293 292 291 290 285 280 277 274 266 261 253 248 245 237 234 236 231 237
110 157 159 143 149 264 285 295 299 302 305 309 308 309 313 313 312 312 310 310 311 311 309 306 302 298 293 293 291 287 284 281 276 274 270 262 254 245 241 236 231 229 227 231
135 210 158 329 331 325 339 335 327 320 314 316 318 317 315 316 315 315 313 311 311 311 310 309 308 304 299 296 292 285 280 277 274 269 265 259 252 245 240 235 226 219 222 217
211 219 198 255 278 333 353 334 324 325 324 323 324 320 322 319 315 314 316 316 317 315 314 313 310 307 303 299 295 290 284 278 271 265 261 254 253 259 248 239 239 231 228 219
172 178 177 229 309 346 336 327 329 332 329 326 327 325 323 319 316 318 319 321 320 318 317 314 313 311 309 306 302 295 286 282 273 265 259 253 245 243 253 252 242 239 234 224
150 138 128 304 303 329 337 334 339 337 330 326 324 324 324 321 320 323 323 321 320 319 318 317 316 315 316 314 309 303 293 286 281 267 256 246 240 234 229 227 228 240 235 216
148 143 166 184 6 353 346 345 346 335 328 328 326 327 326 324 324 323 322 322 323 322 322 322 321 320 321 318 313 308 300 289 280 270 256 243 233 224 221 219 213 202 165 145
144 117 93 56 12 351 349 349 342 330 328 327 328 326 323 321 321 323 325 328 328 326 325 325 325 324 322 319 317 313 306 303 300 278 255 237 219 212 207 201 199 187 168 153
144 145 112 48 4 354 348 340 332 327 327 327 324 324 325 327 328 329 330 329 326 323 323 327 327 327 325 320 317 314 310 310 314 306 260 216 203 198 192 187 185 177 169 167
150 150 143 131 109 2 344 337 329 329 324 319 324 328 331 333 332 331 331 330 329 330 333 334 331 330 327 324 321 315 312 307 309 306 282 202 183 178 176 175 174 167 150 154
130 125 115 98 86 50 337 319 320 321 321 324 329 329 328 328 329 330 331 333 335 338 338 334 329 331 329 329 332 319 321 323 326 330 16 138 151 162 163 164 162 158 146 145
128 123 110 89 65 21 324 318 325 324 323 325 330 331 333 332 332 333 334 333 335 336 332 330 331 334 334 332 335 328 325 328 342 356 48 106 128 141 143 143 140 137 141 148
135 127 113 95 13 331 324 326 329 327 324 332 336 333 330 330 333 336 337 337 336 337 335 329 337 339 336 333 330 337 344 347 0 13 47 95 109 112 114 118 124 130 134 139
148 144 140 152 298 311 314 321 328 332 336 339 336 335 336 337 338 337 334 335 333 334 337 336 341 339 339 337 343 351 358 5 12 23 45 82 105 115 115 116 120 126 129 136
164 168 175 211 242 277 322 337 337 345 345 340 337 338 338 335 337 338 338 336 337 335 338 340 340 341 343 349 354 357 2 9 16 23 44 78 94 103 113 120 125 133 138 138
175 182 196 208 179 54 351 321 331 345 344 337 337 339 341 340 339 338 332 331 337 336 341 340 342 346 350 358 0 2 5 10 15 26 50 70 86 99 106 113 118 126 132 134
181 184 183 169 161 188 232 312 355 358 350 344 342 344 345 341 336 336 338 340 342 344 347 347 348 351 358 360 2 4 4 7 16 29 51 72 86 92 97 107 118 125 127 132
184 182 182 178 174 174 170 91 31 347 348 350 345 345 346 344 343 345 346 345 346 348 353 354 356 358 1 2 4 5 6 6 16 26 33 47 68 83 99 110 118 120 126 134
182 167 156 150 154 153 136 108 89 4 359 6 352 348 348 349 350 352 351 352 353 354 355 357 0 3 4 5 7 11 13 13 16 17 20 27 39 61 85 100 107 109 110 112
Height
1502 1498 1499 1503 1504 1502 1507 1510 1518 1515 1516 1515 1513 1512 1511 1508 1505 1502 1498 1496 1493 1489 1486 1483 1479 1476 1473 1470 1467 1465 1462 1460 1458 1456 1455 1453 1452 1451 1449 1448 1447 1445 1444 1443
1507 1500 1503 1508 1507 1505 1506 1509 1511 1514 1518 1514 1512 1510 1507 1504 1501 1497 1494 1491 1487 1483 1480 1476 1473 1469 1466 1462 1459 1456 1454 1451 1450 1448 1446 1445 1444 1442 1441 1440 1439 1438 1437 1436
1515 1505 1505 1521 1514 1511 1512 1513 1513 1518 1518 1512 1510 1507 1504 1500 1497 1493 1489 1485 1481 1477 1473 1469 1465 1461 1457 1453 1450 1448 1445 1442 1441 1439 1437 1436 1435 1434 1433 1432 1431 1430 1429 1429
1517 1516 1525 1522 1509 1509 1513 1516 1514 1514 1513 1510 1507 1503 1500 1497 1493 1488 1484 1479 1475 1470 1465 1461 1457 1452 1448 1445 1441 1438 1435 1433 1431 1430 1428 1427 1426 1425 1424 1423 1423 1422 1421 1421
1522 1523 1522 1515 1511 1510 1512 1515 1513 1511 1509 1506 1502 1498 1495 1493 1489 1484 1478 1473 1468 1463 1458 1453 1449 1444 1440 1436 1432 1429 1426 1423 1422 1420 1418 1417 1416 1415 1415 1415 1414 1414 1413 1413
1520 1522 1526 1520 1510 1507 1508 1515 1511 1508 1506 1502 1498 1498 1491 1486 1482 1477 1472 1467 1462 1456 1451 1446 1441 1436 1431 1427 1423 1419 1416 1414 1412 1410 1408 1407 1406 1406 1406 1405 1405 1405 1405 1405
1523 1524 1521 1513 1508 1508 1519 1519 1509 1506 1503 1500 1497 1494 1486 1481 1476 1471 1466 1461 1455 1449 1444 1438 1433 1428 1422 1417 1413 1410 1406 1403 1401 1400 1398 1397 1396 1396 1396 1396 1396 1396 1396 1396
1525 1528 1526 1510 1509 1513 1515 1509 1506 1503 1500 1496 1492 1487 1481 1476 1471 1465 1459 1454 1448 1441 1435 1430 1424 1418 1412 1407 1403 1399 1395 1392 1390 1388 1387 1386 1386 1385 1386 1386 1387 1387 1388 1388
1518 1521 1512 1510 1510 1510 1509 1506 1503 1500 1496 1492 1487 1481 1476 1471 1465 1459 1453 1447 1441 1434 1427 1421 1415 1409 1403 1397 1393 1388 1384 1381 1379 1378 1376 1376 1375 1375 1376 1377 1377 1378 1379 1380
1512 1512 1510 1510 1509 1508 1506 1503 1500 1497 1493 1488 1483 1477 1472 1466 1460 1454 1447 1441 1433 1426 1418 1411 1406 1400 1393 1388 1382 1378 1374 1371 1369 1367 1366 1365 1365 1366 1366 1367 1368 1370 1371 1373
1511 1509 1508 1507 1506 1504 1502 1499 1496 1493 1489 1485 1479 1474 1468 1462 1455 1448 1441 1434 1427 1419 1411 1403 1396 1390 1384 1378 1373 1368 1364 1362 1360 1358 1357 1356 1356 1357 1358 1359 1361 1362 1364 1366
1510 1506 1506 1505 1504 1501 1499 1496 1493 1489 1485 1481 1476 1470 1464 1458 1451 1443 1436 1428 1420 1412 1404 1396 1388 1381 1375 1370 1365 1360 1355 1353 1351 1350 1349 1348 1349 1349 1350 1352 1354 1356 1358 1361
1501 1502 1503 1502 1501 1498 1496 1493 1490 1486 1482 1477 1472 1467 1460 1453 1446 1439 1431 1423 1414 1406 1398 1389 1381 1375 1368 1363 1357 1352 1349 1346 1344 1343 1342 1341 1342 1343 1344 1346 1348 1350 1353 1355
1499 1500 1499 1499 1497 1495 1493 1490 1487 1483 1479 1474 1468 1462 1456 1449 1441 1434 1426 1418 1409 1400 1392 1384 1376 1369 1363 1357 1352 1347 1343 1340 1338 1336 1335 1335 1336 1337 1339 1340 1343 1345 1348 1351
1497 1497 1496 1495 1494 1492 1489 1486 1483 1479 1474 1470 1464 1458 1452 1445 1437 1429 1421 1413 1404 1396 1387 1379 1372 1365 1359 1353 1347 1342 1338 1335 1333 1332 1331 1331 1331 1333 1335 1337 1339 1342 1345 1348
1494 1494 1493 1492 1491 1489 1486 1483 1479 1475 1471 1466 1461 1455 1449 1442 1434 1426 1417 1409 1400 1391 1383 1376 1368 1361 1355 1349 1344 1339 1336 1333 1331 1329 1327 1328 1329 1330 1332 1334 1336 1339 1342 1345
1491 1491 1490 1489 1487 1485 1483 1480 1477 1473 1469 1463 1458 1452 1445 1437 1429 1421 1413 1405 1398 1390 1382 1374 1366 1359 1352 1347 1342 1337 1334 1331 1329 1327 1326 1326 1327 1329 1331 1333 1335 1337 1340 1343
1488 1487 1487 1486 1485 1483 1480 1478 1475 1471 1466 1461 1455 1449 1442 1434 1427 1418 1410 1402 1394 1387 1380 1372 1364 1357 1351 1345 1340 1336 1333 1331 1328 1327 1326 1326 1327 1328 1330 1332 1334 1337 1340 1343
1485 1485 1484 1483 1482 1480 1478 1475 1472 1468 1464 1458 1452 1446 1440 1433 1425 1417 1409 1400 1393 1384 1377 1370 1363 1356 1350 1344 1340 1336 1333 1331 1329 1328 1328 1328 1328 1329 1330 1332 1334 1337 1340 1343
1483 1482 1481 1480 1479 1477 1475 1472 1469 1466 1461 1456 1450 1444 1437 1430 1423 1415 1407 1400 1394 1386 1378 1370 1363 1357 1351 1345 1340 1336 1334 1332 1331 1330 1329 1329 1330 1331 1332 1333 1335 1338 1341 1344
1480 1479 1479 1477 1476 1475 1473 1470 1467 1463 1459 1454 1448 1442 1436 1429 1421 1414 1406 1399 1392 1385 1378 1371 1364 1358 1352 1347 1342 1338 1336 1334 1333 1332 1331 1332 1332 1333 1334 1336 1338 1340 1343 1346
1477 1476 1476 1475 1473 1472 1470 1468 1465 1461 1457 1452 1447 1441 1434 1427 1420 1413 1407 1401 1393 1386 1379 1372 1366 1361 1355 1350 1346 1342 1339 1337 1336 1335 1334 1335 1335 1336 1337 1339 1341 1344 1347 1350
1474 1473 1473 1472 1471 1469 1468 1466 1463 1459 1455 1451 1445 1439 1433 1427 1421 1413 1406 1400 1393 1387 1380 1374 1369 1363 1359 1354 1350 1346 1344 1341 1340 1339 1338 1338 1339 1340 1341 1343 1345 1347 1350 1354
1470 1470 1470 1469 1468 1467 1465 1463 1461 1457 1454 1450 1445 1439 1433 1426 1420 1414 1408 1402 1395 1388 1382 1377 1371 1366 1362 1358 1354 1351 1348 1346 1345 1344 1343 1343 1343 1344 1346 1347 1349 1352 1354 1357
1466 1466 1466 1466 1465 1464 1463 1461 1458 1456 1452 1448 1443 1438 1433 1427 1421 1415 1409 1402 1396 1390 1384 1379 1374 1369 1365 1361 1358 1355 1353 1351 1350 1349 1348 1348 1349 1349 1350 1352 1354 1356 1358 1361
1462 1462 1462 1462 1462 1461 1460 1459 1456 1454 1450 1446 1442 1437 1432 1427 1421 1415 1409 1404 1398 1392 1387 1382 1377 1373 1369 1365 1363 1360 1358 1356 1355 1354 1354 1354 1355 1355 1356 1358 1359 1361 1363 1366
1458 1458 1459 1459 1459 1459 1458 1456 1454 1452 1449 1445 1441 1437 1432 1427 1421 1416 1410 1405 1400 1395 1390 1385 1381 1377 1373 1370 1367 1365 1363 1361 1360 1359 1359 1359 1360 1361 1362 1363 1365 1366 1369 1371